[[{"header":{"parameterUnit":"m.s-1","parameterCategory":1,"la1":30.2991,"la2":30.254,"lo1":-89.0895,"lo2":-89.0444,"dy":0.0017,"dx":0.0017,"nx":28,"ny":28,"refTime":"2025-08-04T03:00:00:Z","depth":0,"parameterNumber":2,"parameterNumberName":"U-component_of_WINDS"},"data":[0,0,0,0,0,0,0,0,0,0,0,0,0,0,0,0,0,0,0,0,0,0,0,0,0,0,0,0,0,0,0,0,0,0,0,0,0,0,0,0,0,0,0,0,0,0,0,0,0,0,0,0,0,0,0,0,0,0,-1.1902,-1.1904,0,-1.2101,-1.2103,-1.2105,-1.2221,-1.2222,-1.2222,-1.2223,-1.2427,-1.2432,-1.2437,0,0,0,0,0,0,0,0,0,0,0,0,0,-1.1622,-1.1627,-1.1901,-1.1904,-1.1906,-1.21,-1.2103,-1.2106,-1.2221,-1.2222,-1.2222,-1.2223,-1.2426,-1.2432,-1.2438,0,0,0,0,0,0,0,0,0,0,0,0,0,-1.1775,-1.1628,-1.1901,-1.1987,-1.1997,-1.21,-1.2103,-1.2106,-1.2221,-1.2222,-1.2223,-1.2223,-1.2424,-1.2431,-1.2438,-1.2471,0,0,-1.2461,-1.2465,0,0,0,0,0,0,0,0,-1.1766,-1.1785,-1.1972,-1.1982,-1.1993,-1.2137,-1.208,-1.2229,-1.2221,-1.2136,-1.2223,-1.2224,-1.233,-1.2345,-1.2381,-1.248,-1.2489,-1.2462,-1.2467,-1.247,-1.2472,0,0,0,0,0,0,0,-1.1755,-1.1777,-1.198,-1.1975,-1.1987,-1.2017,-1.2039,-1.2108,-1.2227,-1.2144,-1.2152,-1.2174,-1.2336,-1.2374,-1.2387,-1.2492,-1.2462,-1.2469,-1.2473,-1.2476,-1.2627,-1.2626,0,0,0,0,0,0,-1.1731,-1.1767,-1.1974,-1.1986,-1.1879,-1.2021,-1.2046,-1.209,-1.2226,-1.2248,-1.2174,-1.2179,-1.2361,-1.2378,-1.2395,-1.2441,-1.247,-1.2477,-1.2481,-1.2627,-1.2627,-1.2626,0,0,0,0,0,0,-1.1724,-1.1748,-1.1966,-1.1879,-1.1909,-1.2025,-1.2073,-1.2093,-1.2131,-1.2249,-1.2271,-1.219,-1.2362,-1.2384,-1.2451,-1.2449,-1.248,-1.2487,-1.2628,-1.2627,-1.2627,-1.2533,0,0,0,0,0,0,-1.1716,-1.1745,-1.1758,-1.1879,-1.1913,-1.2018,-1.2073,-1.2097,-1.2144,-1.2153,-1.2271,-1.2291,-1.2364,-1.2439,-1.2458,-1.246,-1.2493,-1.2629,-1.2628,-1.2627,-1.2536,-1.2529,-1.2522,0,0,0,0,0,-1.1705,-1.1724,-1.1758,-1.1783,-1.1932,-1.2018,-1.2038,-1.2122,-1.2143,-1.2158,-1.2233,-1.2287,-1.2446,-1.2445,-1.2467,-1.2472,-1.2629,-1.2628,-1.2627,-1.254,-1.253,-1.2523,0,0,0,0,0,0,-1.1602,-1.1742,-1.1781,-1.184,-1.1916,-1.2037,-1.2058,-1.2109,-1.2181,-1.2187,-1.2288,-1.2314,-1.237,-1.2428,-1.2424,-1.251,-1.2544,-1.2547,-1.247,-1.2462,-1.2455,-1.2439,-1.2499,0,0,0,0,0,-1.1585,-1.1643,-1.1762,-1.1803,-1.1839,-1.1941,-1.1982,-1.204,-1.2123,-1.2156,-1.2237,-1.2315,-1.2384,-1.2426,-1.2495,-1.2546,-1.2573,-1.256,-1.2553,-1.2546,-1.2548,-1.2578,-1.2574,-1.2623,-1.2623,-1.2623,0,0,-1.1553,-1.1636,-1.1667,-1.1784,-1.185,-1.1907,-1.1968,-1.2026,-1.2069,-1.2165,-1.2232,-1.2294,-1.2389,-1.2447,-1.2477,-1.2497,-1.254,-1.2545,-1.2539,-1.2544,-1.2576,-1.2572,-1.2567,-1.2622,-1.2622,-1.2622,0,0,-1.1522,-1.1591,-1.1632,-1.1696,-1.1795,-1.1863,-1.1872,-1.1987,-1.2031,-1.21,-1.2173,-1.2226,-1.2341,-1.2406,-1.2453,-1.2446,-1.2498,-1.2466,-1.2429,-1.2457,-1.2453,-1.245,-1.2446,-1.2444,-1.2467,-1.2467,-1.2467,0,-1.1469,-1.1558,-1.1646,-1.17,-1.1749,-1.1838,-1.1879,-1.1938,-1.2054,-1.2086,-1.2107,-1.2253,-1.2323,-1.2397,-1.2395,-1.2431,-1.2445,-1.2452,-1.2446,-1.2444,-1.2443,-1.2441,-1.2439,-1.2462,-1.2463,-1.2463,-1.2464,0,-1.1487,-1.1547,-1.1568,-1.1677,-1.1729,-1.1776,-1.1872,-1.1914,-1.1967,-1.2032,-1.2101,-1.2189,-1.2277,-1.2299,-1.2352,-1.238,-1.239,-1.2427,-1.2463,-1.2432,-1.2431,-1.2431,-1.2456,-1.2457,-1.2459,-1.246,0,0,-1.1397,-1.1553,-1.1559,-1.1609,-1.1724,-1.1773,-1.1824,-1.1909,-1.1943,-1.202,-1.2065,-1.216,-1.2195,-1.2249,-1.231,-1.2335,-1.2322,-1.237,-1.2374,-1.2357,-1.2358,-1.2328,-1.2326,-1.2358,-1.2358,-1.2358,-1.235,0,-1.1382,-1.1477,-1.1558,-1.1623,-1.168,-1.1764,-1.1809,-1.1884,-1.1947,-1.2004,-1.2074,-1.2139,-1.2181,-1.2214,-1.2243,-1.2318,-1.2324,-1.232,-1.2401,-1.2402,-1.2373,-1.2326,-1.2295,-1.2283,-1.2351,-1.2351,-1.2351,0,-1.1377,-1.145,-1.152,-1.1628,-1.1655,-1.1694,-1.1778,-1.1832,-1.1919,-1.1963,-1.2022,-1.2086,-1.2144,-1.2174,-1.2256,-1.2251,-1.2289,-1.2331,-1.2332,-1.2342,-1.2373,-1.2333,-1.2281,-1.2278,-1.2351,-1.2351,-1.2351,0,-1.1302,-1.1418,-1.1475,-1.1515,-1.1643,-1.1668,-1.1723,-1.1811,-1.1856,-1.1931,-1.1961,-1.2041,-1.2084,-1.2145,-1.2228,-1.2243,-1.23,-1.2338,-1.2338,-1.2336,-1.2346,-1.2344,-1.2297,-1.2372,-1.2372,-1.2372,-1.2372,0,-1.1277,-1.1316,-1.1442,-1.1477,-1.1524,-1.1617,-1.1661,-1.1723,-1.18,-1.1849,-1.1928,-1.1972,-1.208,-1.2137,-1.2203,-1.2259,-1.2279,-1.2316,-1.2332,-1.2308,-1.2303,-1.2333,-1.2336,-1.2371,-1.2371,-1.2371,-1.2371,0,-1.12,-1.1287,-1.1354,-1.1469,-1.1499,-1.1528,-1.1628,-1.1665,-1.1732,-1.1792,-1.1812,-1.1917,-1.1988,-1.2078,-1.2178,-1.2222,-1.2271,-1.2298,-1.2241,-1.2251,-1.2245,-1.2244,-1.2215,-1.2216,-1.229,-1.2289,-1.2289,0,-1.1178,-1.121,-1.1328,-1.1366,-1.1418,-1.1478,-1.1524,-1.1617,-1.1663,-1.1764,-1.1789,-1.1866,-1.1932,-1.2042,-1.2128,-1.2204,-1.2233,-1.2218,-1.2245,-1.2219,-1.2231,-1.2227,-1.2231,-1.221,-1.2209,-1.2208,-1.2207,0,-1.1128,-1.1168,-1.1232,-1.1311,-1.1364,-1.1431,-1.1501,-1.1527,-1.1635,-1.1682,-1.1755,-1.1807,-1.1908,-1.1983,-1.2071,-1.2129,-1.2185,-1.2198,-1.2202,-1.2176,-1.2141,-1.2159,-1.2221,-1.2198,-1.2199,-1.2199,-1.22,-1.22,-1.1077,-1.1109,-1.1196,-1.1265,-1.1327,-1.1391,-1.1431,-1.1502,-1.1565,-1.1654,-1.1705,-1.1776,-1.1863,-1.1986,-1.2041,-1.2099,-1.212,-1.2126,-1.2127,-1.2127,-1.2118,-1.2133,-1.2115,-1.2116,-1.2116,-1.2116,-1.2117,0,-1.103,-1.109,-1.1152,-1.1247,-1.13,-1.1349,-1.1429,-1.1471,-1.1532,-1.1607,-1.1671,-1.1754,-1.1828,-1.1919,-1.1999,-1.2027,-1.2055,-1.2045,-1.2043,-1.2055,-1.2095,-1.2083,-1.2021,-1.2021,-1.2021,-1.2021,-1.2021,-1.2021,-1.1011,-1.1067,-1.1118,-1.1206,-1.1267,-1.1336,-1.1377,-1.1437,-1.1497,-1.1586,-1.1647,-1.1706,-1.1788,-1.1874,-1.1944,-1.1969,-1.1994,-1.1975,-1.2008,-1.2044,-1.2052,-1.206,-1.2049,-1.1981,-1.198,-1.1963,-1.1963,-1.1963]},{"header":{"parameterUnit":"m.s-1","parameterCategory":1,"la1":30.2991,"la2":30.254,"lo1":-89.0895,"lo2":-89.0444,"dy":0.0017,"dx":0.0017,"nx":28,"ny":28,"refTime":"2025-08-04T03:00:00:Z","depth":0,"parameterNumber":3,"parameterNumberName":"V-component_of_WINDS"},"data":[0,0,0,0,0,0,0,0,0,0,0,0,0,0,0,0,0,0,0,0,0,0,0,0,0,0,0,0,0,0,0,0,0,0,0,0,0,0,0,0,0,0,0,0,0,0,0,0,0,0,0,0,0,0,0,0,0,0,-0.4012,-0.4007,0,-0.3547,-0.3541,-0.3536,-0.3337,-0.3338,-0.3339,-0.334,-0.2864,-0.2851,-0.2838,0,0,0,0,0,0,0,0,0,0,0,0,0,-0.4729,-0.4717,-0.4013,-0.4007,-0.4001,-0.3548,-0.3541,-0.3535,-0.3337,-0.3338,-0.3339,-0.334,-0.2868,-0.2853,-0.2836,0,0,0,0,0,0,0,0,0,0,0,0,0,-0.4356,-0.4713,-0.4014,-0.3848,-0.3828,-0.3549,-0.3541,-0.3533,-0.3337,-0.3338,-0.3339,-0.334,-0.2874,-0.2854,-0.2834,-0.2686,0,0,-0.2773,-0.2764,0,0,0,0,0,0,0,0,-0.4378,-0.433,-0.3878,-0.3859,-0.3836,-0.3501,-0.3619,-0.3249,-0.3337,-0.3523,-0.334,-0.3341,-0.3075,-0.3039,-0.2948,-0.2663,-0.2643,-0.2771,-0.2759,-0.275,-0.2744,0,0,0,0,0,0,0,-0.4404,-0.4349,-0.3828,-0.3872,-0.3846,-0.3796,-0.3744,-0.3548,-0.3298,-0.3507,-0.3492,-0.3439,-0.3064,-0.2968,-0.2936,-0.2636,-0.2772,-0.2754,-0.2741,-0.2733,-0.2203,-0.2201,0,0,0,0,0,0,-0.4457,-0.4372,-0.3843,-0.3814,-0.4115,-0.3782,-0.3724,-0.3608,-0.33,-0.3254,-0.3439,-0.3432,-0.3002,-0.296,-0.2919,-0.2721,-0.275,-0.2731,-0.272,-0.2205,-0.2202,-0.22,0,0,0,0,0,0,-0.4473,-0.4412,-0.3862,-0.4088,-0.4015,-0.3768,-0.3639,-0.3598,-0.3502,-0.3248,-0.3202,-0.3387,-0.3001,-0.2947,-0.2744,-0.2702,-0.2722,-0.2704,-0.2207,-0.2204,-0.2201,-0.2329,0,0,0,0,0,0,-0.4494,-0.4419,-0.436,-0.4089,-0.4003,-0.3696,-0.3636,-0.3588,-0.3468,-0.3454,-0.3187,-0.3144,-0.2998,-0.2775,-0.2724,-0.2675,-0.2688,-0.221,-0.2206,-0.2202,-0.2328,-0.2331,-0.2334,0,0,0,0,0,-0.4521,-0.4416,-0.4358,-0.4295,-0.3925,-0.3694,-0.3645,-0.3479,-0.3465,-0.3403,-0.324,-0.3153,-0.2716,-0.2756,-0.2697,-0.2641,-0.2211,-0.2207,-0.2202,-0.2326,-0.233,-0.2334,0,0,0,0,0,0,-0.4689,-0.4377,-0.431,-0.4114,-0.3932,-0.3661,-0.3578,-0.3489,-0.3307,-0.3302,-0.3104,-0.3045,-0.2859,-0.273,-0.2781,-0.248,-0.2456,-0.244,-0.2571,-0.2573,-0.2576,-0.261,-0.2672,0,0,0,0,0,-0.4703,-0.4542,-0.4278,-0.4131,-0.4043,-0.3827,-0.372,-0.3607,-0.3411,-0.3333,-0.3155,-0.2968,-0.2787,-0.2673,-0.2494,-0.2309,-0.2247,-0.2241,-0.2244,-0.2248,-0.2236,-0.2126,-0.2119,-0.2185,-0.2185,-0.2185,0,0,-0.4731,-0.4541,-0.4451,-0.4159,-0.4005,-0.3842,-0.3763,-0.3594,-0.347,-0.3307,-0.3104,-0.2967,-0.2745,-0.255,-0.2455,-0.2437,-0.2204,-0.2242,-0.2247,-0.2232,-0.212,-0.2114,-0.2109,-0.2182,-0.2182,-0.2183,0,0,-0.4697,-0.4539,-0.4397,-0.4243,-0.401,-0.3867,-0.3834,-0.3575,-0.3477,-0.327,-0.3144,-0.2994,-0.2689,-0.2535,-0.2417,-0.2324,-0.2236,-0.2272,-0.2287,-0.2183,-0.2177,-0.2172,-0.2136,-0.2126,-0.226,-0.2261,-0.2261,0,-0.4761,-0.451,-0.4335,-0.4172,-0.4046,-0.3891,-0.3745,-0.3605,-0.3326,-0.3242,-0.3226,-0.2837,-0.2677,-0.2443,-0.242,-0.2331,-0.2285,-0.23,-0.2192,-0.2185,-0.2177,-0.2141,-0.2129,-0.2266,-0.2266,-0.2265,-0.2264,0,-0.4599,-0.4427,-0.434,-0.4073,-0.3938,-0.3785,-0.3586,-0.347,-0.337,-0.3228,-0.3019,-0.2821,-0.2598,-0.2534,-0.2435,-0.2285,-0.228,-0.2231,-0.2202,-0.2179,-0.2142,-0.2127,-0.2274,-0.2272,-0.2271,-0.2269,0,0,-0.4658,-0.4295,-0.4266,-0.4142,-0.3873,-0.3736,-0.3576,-0.3356,-0.326,-0.3073,-0.2932,-0.2677,-0.2628,-0.2495,-0.2376,-0.2285,-0.2221,-0.2245,-0.2237,-0.2246,-0.2041,-0.2079,-0.2066,-0.2162,-0.2159,-0.2156,-0.2059,0,-0.4586,-0.429,-0.4128,-0.39,-0.3737,-0.3586,-0.3446,-0.3266,-0.3129,-0.2971,-0.282,-0.2641,-0.2593,-0.251,-0.2413,-0.225,-0.2177,-0.2255,-0.2028,-0.2022,-0.2086,-0.2046,-0.2085,-0.2004,-0.2044,-0.2041,-0.2039,0,-0.4463,-0.4277,-0.4033,-0.378,-0.3706,-0.3583,-0.3367,-0.3218,-0.301,-0.2917,-0.2768,-0.265,-0.2474,-0.2461,-0.2214,-0.2271,-0.2169,-0.2074,-0.2067,-0.2038,-0.2028,-0.2014,-0.1974,-0.1961,-0.2015,-0.2017,-0.2019,0,-0.4527,-0.4216,-0.4029,-0.3928,-0.363,-0.3546,-0.3418,-0.3211,-0.3089,-0.2901,-0.2819,-0.2615,-0.2502,-0.2346,-0.2176,-0.2183,-0.1946,-0.1919,-0.1863,-0.1867,-0.1818,-0.1823,-0.1759,-0.1757,-0.1757,-0.1757,-0.1757,0,-0.4463,-0.4319,-0.4054,-0.3939,-0.3772,-0.3587,-0.3427,-0.3287,-0.3104,-0.2958,-0.2817,-0.2683,-0.2467,-0.2307,-0.2173,-0.1988,-0.1939,-0.1858,-0.1824,-0.1869,-0.188,-0.1798,-0.1799,-0.1753,-0.1754,-0.1755,-0.1756,0,-0.4507,-0.4323,-0.4109,-0.3844,-0.3774,-0.3663,-0.3435,-0.3317,-0.3173,-0.2991,-0.2937,-0.2712,-0.2515,-0.233,-0.2069,-0.1979,-0.1792,-0.1749,-0.1862,-0.1843,-0.1796,-0.1802,-0.1675,-0.1648,-0.1668,-0.1668,-0.1668,0,-0.4477,-0.4362,-0.4084,-0.3976,-0.3851,-0.3679,-0.3553,-0.3366,-0.3241,-0.2994,-0.2906,-0.2699,-0.2523,-0.2216,-0.2029,-0.1827,-0.1777,-0.1746,-0.1746,-0.1795,-0.1774,-0.1782,-0.1768,-0.175,-0.175,-0.1751,-0.1751,0,-0.4442,-0.4357,-0.4181,-0.3973,-0.3827,-0.3654,-0.3477,-0.3396,-0.3175,-0.3042,-0.2838,-0.2702,-0.2434,-0.2229,-0.2007,-0.1874,-0.1775,-0.1753,-0.1729,-0.1773,-0.1843,-0.1802,-0.1869,-0.1757,-0.1756,-0.1756,-0.1755,-0.1755,-0.4445,-0.4336,-0.4123,-0.3931,-0.3778,-0.3615,-0.349,-0.333,-0.3157,-0.2924,-0.2824,-0.2618,-0.2411,-0.2101,-0.197,-0.1806,-0.1784,-0.1749,-0.174,-0.1734,-0.1742,-0.1871,-0.1765,-0.1764,-0.1764,-0.1764,-0.1763,0,-0.4401,-0.4257,-0.4082,-0.3838,-0.3687,-0.3607,-0.3406,-0.3285,-0.3105,-0.2921,-0.275,-0.2516,-0.2317,-0.2114,-0.1903,-0.1811,-0.176,-0.1762,-0.1766,-0.1736,-0.1775,-0.1816,-0.1806,-0.1806,-0.1806,-0.1806,-0.1806,-0.1806,-0.4361,-0.417,-0.406,-0.3791,-0.3646,-0.3443,-0.3335,-0.3183,-0.3034,-0.2779,-0.2612,-0.2481,-0.2288,-0.2062,-0.1876,-0.1821,-0.1749,-0.1763,-0.1696,-0.1736,-0.1734,-0.1732,-0.1769,-0.175,-0.175,-0.167,-0.167,-0.1669]}]]